User: anonymous   Login
Location: Vancouver
(49.2500°N, 123.1330°W)
Time: 18:15:40
(UTC-07:00)
Language:

Cosmos 676 Rocket - Orbit

View from above orbital plane
View from above orbital plane
View from above satellite
View from above satellite

Ground track
Ground track

The orbit data is extracted from the following two-line orbital elements,

1  7434U 74071B   17118.92249636 +.00000094 +00000-0 +40790-4 0  9993
2  7434 074.0458 304.4985 0021386 228.9252 131.0055 14.36628258229363
Epoch (UTC): 28 April 2017 22:08:23
Eccentricity: 0.0021386
inclination: 74.0458°
perigee height: 754 km
apogee height: 785 km
right ascension of ascending node: 304.4985°
argument of perigee: 228.9252°
revolutions per day: 14.36628258
mean anomaly at epoch: 131.0055°
orbit number at epoch: 22936

The dashed part of the orbit path shows where the satellite is in the earth's shadow,  

DLR